Location: The Saddle
(36.8333°N, 80.3417°W)
Time: 06:36:27
(UTC-05:00)

Vanguard 3 - Pass Details

Date: 09 February 2026
Orbit: 507 x 3205 km, 33.3° (Epoch: 5 March)

Event Time Altitude Azimuth Distance (km) Brightness Sun altitude
Rises 18:21:10 0° 229° (SW) 4,004 12.0 -5.8°
Reaches altitude 10° 18:24:54 10° 218° (SW) 2,620 10.6 -6.5°
Maximum altitude 18:29:37 25° 164° (SSE) 1,380 8.3 -7.4°
Drops below altitude 10° 18:33:06 10° 107° (ESE) 1,886 8.5 -8.1°
Enters shadow 18:33:32 - 103° (ESE) 2,025 8.6 -8.2°
